This is the latest recevied weather packets stored in our database for station/object N1OF. If no packets are shown the sender has not sent any weather packets the latest 10 day(s).
| Time | Temp. | Humidity | Pressure | Rain* | Wind** | Luminosity | Snow |
|---|---|---|---|---|---|---|---|
| 1777753312 | 8.33° C | 50% | 1017.7 hPa | 0 mm | - | - | - |
| 1777753009 | 8.33° C | 47% | 1017.9 hPa | 0 mm | - | - | - |
| 1777752706 | 8.33° C | 47% | 1017.7 hPa | 0 mm | - | - | - |
| 1777752401 | 8.89° C | 47% | 1017.8 hPa | 0 mm | - | - | - |
| 1777752099 | 8.89° C | 46% | 1017.9 hPa | 0 mm | - | - | - |
| 1777751797 | 8.89° C | 45% | 1017.8 hPa | 0 mm | - | - | - |
| 1777751493 | 8.89° C | 47% | 1017.9 hPa | 0 mm | - | - | - |
| 1777751190 | 8.33° C | 48% | 1018.2 hPa | 0 mm | - | - | - |
| 1777750886 | 8.33° C | 48% | 1018.1 hPa | 0 mm | - | - | - |
| 1777750583 | 8.33° C | 48% | 1018.2 hPa | 0 mm | - | - | - |
| 1777750280 | 8.33° C | 48% | 1018.2 hPa | 0 mm | - | - | - |
| 1777749975 | 8.33° C | 48% | 1018.2 hPa | 0 mm | - | - | - |
| 1777749673 | 8.33° C | 47% | 1018.3 hPa | 0 mm | - | - | - |
| 1777749369 | 8.33° C | 47% | 1018.2 hPa | 0 mm | - | - | - |
| 1777749067 | 8.33° C | 46% | 1018.2 hPa | 0 mm | - | - | - |
| 1777748765 | 8.89° C | 45% | 1018.4 hPa | 0 mm | - | - | - |
| 1777748462 | 8.89° C | 47% | 1018.2 hPa | 0 mm | - | - | - |
| 1777748156 | 8.89° C | 46% | 1018.3 hPa | 0 mm | - | - | - |
| 1777747854 | 8.33° C | 47% | 1018.5 hPa | 0 mm | - | - | - |
| 1777747549 | 8.33° C | 47% | 1018.4 hPa | 0 mm | - | - | - |
| 1777747245 | 8.33° C | 48% | 1018.2 hPa | 0 mm | - | - | - |
| 1777746942 | 8.33° C | 44% | 1018.3 hPa | 0 mm | - | - | - |
| 1777746638 | 8.89° C | 44% | 1018.4 hPa | 0 mm | - | - | - |
| 1777746333 | 9.44° C | 45% | 1018.3 hPa | 0 mm | - | - | - |
| 1777746029 | 8.33° C | 46% | 1018.4 hPa | 0 mm | - | - | - |
* Rain latest hour (hover to see other rain measurements)
** Current wind speed in m/s (hover to see current wind gust speed)